Weather History for De Queen, AR

Change the Weather History Date:

Saturday, November 3, 2012

  Actual Average Record
Temperature  
Mean Temperature 66 °F 58 °F  
Max Temperature 83 °F 71 °F 83 °F (2012)
Min Temperature 48 °F 45 °F 17 °F (1951)
Degree Days  
Heating Degree Days 0 8  
Month to date heating degree days 5 24  
Since 1 July heating degree days 177 157  
Cooling Degree Days 1 1  
Month to date cooling degree days 2 3  
Year to date cooling degree days 2171 1937  
Growing Degree Days 15 (Base 50)    
Moisture  
Dew Point 52 °F    
Average Humidity 71    
Maximum Humidity 100    
Minimum Humidity 42    
Precipitation  
Precipitation T in 0.17 in 1.42 in (1975)
Month to date precipitation T 0.49  
Year to date precipitation 23.55 40.21  
Snow  
Snow 0.00 in - - ()
Month to date snowfall 0.0  
Since 1 July snowfall 0.0  
Since 1 September snowfall 0.0  
Snow Depth 0.00 in    
Sea Level Pressure  
Sea Level Pressure 30.01 in    
Wind  
Wind Speed 4 mph (West)    
Max Wind Speed 16 mph    
Max Gust Speed 20 mph    
Visibility 7 miles    
Events Fog    
T = Trace of Precipitation, MM = Missing Value Source: NWS Daily Summary

Daily Weather History Graph

Daily Weather History Graph

Search for Another Location

Airport:

Trip Planner

Search our weather history database for the weather conditions in past years. The results will help you decide how hot, cold, wet, or windy it might be!

Date:

Astronomy

Nov. 03, 2012 Rise Set
Actual Time 7:39 AM CDT 6:22 PM CDT
Civil Twilight 7:13 AM CDT 6:48 PM CDT
Nautical Twilight 6:43 AM CDT 7:18 PM CDT
Astronomical Twilight 6:14 AM CDT 7:47 PM CDT
Moon 10:08 PM CDT (11/3) 11:39 AM CDT (11/3)
Length of Visible Light 11h 34m
Length of Day
10h 42m
Waning Gibbous, 80% of the Moon is Illuminated
Nov 3
Waning Gibbous
Nov 6
Last Quarter
Nov 13
New
Nov 20
First Quarter
Nov 28
Full

Hourly Weather History & Observations

Time (CDT) Temp. Heat Index Dew Point Humidity Pressure Visibility Wind Dir Wind Speed Gust Speed Precip Events Conditions
12:53 AM 52.0 °F - 50.0 °F 93% 29.96 in 10.0 mi Calm Calm - N/A   Clear
1:53 AM 52.0 °F - 50.0 °F 93% 29.95 in 10.0 mi Calm Calm - N/A   Clear
2:53 AM 50.0 °F - 48.9 °F 96% 29.96 in 5.0 mi Calm Calm - N/A   Clear
3:53 AM 50.0 °F - 48.0 °F 93% 29.96 in 7.0 mi East 3.5 mph - N/A   Clear
4:18 AM 50.0 °F - 48.9 °F 96% 29.99 in 2.0 mi Calm Calm - N/A   Clear
4:33 AM 51.1 °F - 50.0 °F 96% 29.99 in 1.0 mi East 3.5 mph - N/A   Clear
4:43 AM 50.0 °F - 48.9 °F 96% 30.00 in 3.0 mi Calm Calm - N/A   Clear
4:53 AM 50.0 °F - 48.9 °F 96% 29.99 in 7.0 mi Calm Calm - N/A   Clear
5:01 AM 50.0 °F - 48.9 °F 96% 30.00 in 1.5 mi Calm Calm - N/A   Clear
5:10 AM 50.0 °F - 48.9 °F 96% 30.00 in 0.5 mi Calm Calm - N/A Fog Fog
5:44 AM 50.0 °F - 48.9 °F 96% 30.01 in 0.5 mi Calm Calm - N/A Fog Fog
5:53 AM 48.9 °F - 48.9 °F 100% 30.00 in 1.2 mi Calm Calm - N/A   Clear
6:00 AM 50.0 °F - 48.9 °F 96% 30.01 in 3.0 mi Calm Calm - N/A   Clear
6:11 AM 50.0 °F - 48.9 °F 96% 30.01 in 1.8 mi Calm Calm - N/A   Clear
6:18 AM 48.9 °F - 48.9 °F 100% 30.02 in 2.0 mi Calm Calm - N/A   Clear
6:33 AM 48.9 °F - 48.0 °F 97% 30.02 in 6.0 mi Calm Calm - N/A   Clear
6:53 AM 48.0 °F - 46.9 °F 96% 30.02 in 8.0 mi Calm Calm - N/A   Clear
7:49 AM 48.2 °F - 48.2 °F 100% 30.05 in 5.0 mi Calm Calm - N/A   Mostly Cloudy
7:53 AM 50.0 °F - 48.0 °F 93% 30.04 in 5.0 mi Calm Calm - N/A   Mostly Cloudy
8:53 AM 55.9 °F - 54.0 °F 93% 30.06 in 8.0 mi Calm Calm - N/A   Overcast
9:21 AM 57.9 °F - 55.0 °F 90% 30.07 in 8.0 mi Calm Calm - N/A   Overcast
9:53 AM 60.1 °F - 57.0 °F 90% 30.06 in 6.0 mi Calm Calm - N/A   Overcast
10:53 AM 69.1 °F - 61.0 °F 75% 30.06 in 10.0 mi SW 8.1 mph - N/A   Scattered Clouds
11:53 AM 73.9 °F - 63.0 °F 68% 30.04 in 10.0 mi WSW 10.4 mph - N/A   Clear
12:53 PM 79.0 °F - 62.1 °F 56% 30.02 in 10.0 mi West 10.4 mph - N/A   Clear
1:53 PM 80.1 °F 81.2 °F 62.1 °F 54% 29.99 in 10.0 mi West 9.2 mph - N/A   Scattered Clouds
2:53 PM 82.0 °F 83.0 °F 62.1 °F 51% 29.97 in 7.0 mi West 6.9 mph - N/A   Mostly Cloudy
3:53 PM 81.0 °F 81.7 °F 61.0 °F 50% 29.95 in 10.0 mi WNW 9.2 mph - N/A   Mostly Cloudy
4:53 PM 81.0 °F 81.6 °F 60.1 °F 49% 29.95 in 10.0 mi WNW 6.9 mph - N/A   Clear
5:53 PM 75.9 °F - 59.0 °F 56% 29.96 in 10.0 mi WSW 5.8 mph - N/A   Partly Cloudy
6:53 PM 73.0 °F - 51.1 °F 46% 29.99 in 10.0 mi Variable 4.6 mph - N/A   Clear
7:53 PM 69.1 °F - 46.9 °F 45% 30.01 in 10.0 mi NE 5.8 mph - N/A   Clear
8:53 PM 66.0 °F - 43.0 °F 43% 30.02 in 10.0 mi NNE 4.6 mph - N/A   Clear
9:53 PM 64.9 °F - 43.0 °F 45% 30.03 in 10.0 mi Calm Calm - N/A   Mostly Cloudy
10:53 PM 60.1 °F - 45.0 °F 57% 30.04 in 10.0 mi Calm Calm - N/A   Clear
11:53 PM 62.1 °F - 43.0 °F 50% 30.05 in 10.0 mi East 4.6 mph - N/A   Mostly Cloudy